Location: Unspecified
(42.3650°N, 71.1030°W)
Time: 09:46:37
(UTC+00:00)

Courier 1B - Pass Details

Date: 30 June 2024
Orbit: 962 x 1209 km, 28.3° (Epoch: 13 July)

Event Time Altitude Azimuth Distance (km) Brightness Sun altitude
Rises 03:25:12 0° 240° (WSW) 3,654 10.4 -21.7°
Reaches altitude 10° 03:28:20 10° 226° (SW) 2,730 9.6 -21.9°
Enters shadow 03:28:47 12° 223° (SW) 2,610 9.5 -22.0°
Maximum altitude 03:33:25 24° 175° (S) 1,958 - -22.3°
Drops below altitude 10° 03:38:43 10° 125° (SE) 2,845 - -22.6°
Sets 03:42:03 0° 112° (ESE) 3,845 - -22.7°
